Location: Keewatin
(47.4004°N, 93.0827°W)
Time: 00:59:30
(UTC+00:00)

ZACube-1 - Pass Details

Date: 03 March 2020
Orbit: 584 x 667 km, 97.6° (Epoch: 01 April)

Event Time Altitude Azimuth Distance (km) Brightness Sun altitude
Rises 11:09:05 0° 27° (NNE) 3,009 ? -17.5°
Reaches altitude 10° 11:11:59 10° 46° (NE) 2,081 ? -17.0°
Maximum altitude 11:15:07 18° 90° (E) 1,583 ? -16.5°
Drops below altitude 10° 11:18:13 10° 134° (SE) 2,041 ? -15.9°
Sets 11:21:00 0° 153° (SSE) 2,929 ? -15.5°
